This is the latest recevied weather packets stored in our database for station/object KM4CNW. If no packets are shown the sender has not sent any weather packets the latest 10 day(s).
| Time | Temp. | Humidity | Pressure | Rain* | Wind** | Luminosity | Snow |
|---|---|---|---|---|---|---|---|
| 1778015222 | 27.22° C | 32% | 1008 hPa | 0 mm | - | 504 W/m² | - |
| 1778014919 | 26.67° C | 31% | 1007.9 hPa | 0 mm | - | 506 W/m² | - |
| 1778014617 | 26.67° C | 31% | 1007.9 hPa | 0 mm | - | 548 W/m² | - |
| 1778014315 | 26.67° C | 31% | 1008.1 hPa | 0 mm | - | 539 W/m² | - |
| 1778014011 | 26.67° C | 31% | 1007.9 hPa | 0 mm | - | 584 W/m² | - |
| 1778013709 | 26.11° C | 33% | 1008 hPa | 0 mm | - | 592 W/m² | - |
| 1778013406 | 26.11° C | 33% | 1008.2 hPa | 0 mm | - | 543 W/m² | - |
| 1778013103 | 25.56° C | 34% | 1008.3 hPa | 0 mm | - | 159 W/m² | - |
| 1778012798 | 26.11° C | 33% | 1008.2 hPa | 0 mm | - | 540 W/m² | - |
| 1778012494 | 26.11° C | 34% | 1008.3 hPa | 0 mm | - | 549 W/m² | - |
| 1778012191 | 26.11° C | 33% | 1008.1 hPa | 0 mm | - | 584 W/m² | - |
| 1778011889 | 26.67° C | 33% | 1008.1 hPa | 0 mm | - | 692 W/m² | - |
| 1778011587 | 26.11° C | 33% | 1008.2 hPa | 0 mm | - | 207 W/m² | - |
| 1778011284 | 26.67° C | 32% | 1008.1 hPa | 0 mm | - | 691 W/m² | - |
| 1778010980 | 27.22° C | 30% | 1008.2 hPa | 0 mm | - | 725 W/m² | - |
| 1778010677 | 26.67° C | 31% | 1008.3 hPa | 0 mm | - | 763 W/m² | - |
| 1778010374 | 26.11° C | 32% | 1008.4 hPa | 0 mm | - | 681 W/m² | - |
| 1778010070 | 26.67° C | 30% | 1008.5 hPa | 0 mm | - | 579 W/m² | - |
| 1778009767 | 27.22° C | 31% | 1008.7 hPa | 0 mm | - | 782 W/m² | - |
| 1778009464 | 27.22° C | 32% | 1008.8 hPa | 0 mm | - | 790 W/m² | - |
| 1778009163 | 26.67° C | 33% | 1008.9 hPa | 0 mm | - | 809 W/m² | - |
| 1778008860 | 26.67° C | 33% | 1008.9 hPa | 0 mm | - | 827 W/m² | - |
| 1778008558 | 26.11° C | 35% | 1009 hPa | 0 mm | - | 840 W/m² | - |
| 1778008256 | 26.11° C | 34% | 1008.8 hPa | 0 mm | - | 221 W/m² | - |
| 1778007950 | 26.11° C | 34% | 1008.8 hPa | 0 mm | - | 784 W/m² | - |
* Rain latest hour (hover to see other rain measurements)
** Current wind speed in m/s (hover to see current wind gust speed)